{"data":{"norad_id":63192,"intl_designator":"2025-048K","name":"STARLINK-11643 [DTC]","alt_names":[],"object_type":"PAYLOAD","status":"ACTIVE","operator":null,"country":"US","launch_date":"2025-03-13","launch_site_code":"AFETR","launch_vehicle":null,"mission":null,"orbit_class":"UNKNOWN","rcs_meters":null,"size_class":null,"mass_kg":null,"dimensions":null,"purposes":["comms"],"wikipedia_slug":null,"has_3d_model":false,"image_url":null,"decayed_at":null,"tle_current":{"epoch":"2026-09-21T06:55:05.007360Z","epoch_age_seconds":94099,"freshness":"FRESH","line1":"1 63192U 25048K   26264.28825240  .00167471  00000+0  12799-2 0  9996","line2":"2 63192  42.9998 220.9003 0002044 268.3419  91.7214 15.70888276 89286","mean_motion":15.70888276,"eccentricity":0.0002044,"inclination_deg":42.9998,"raan_deg":220.9003,"arg_perigee_deg":268.3419,"mean_anomaly_deg":91.7214,"bstar":0.0012799,"rev_number":8928,"period_min":91.667881287313,"perigee_km":354.98055266863,"apogee_km":357.73361384986,"semimajor_km":6734.4940832592,"source":"CELESTRAK","updated_at":"2026-09-22T09:00:49.796302Z"}}}